This is the latest recevied weather packets stored in our database for station/object K5BOU. If no packets are shown the sender has not sent any weather packets the latest 10 day(s).
| Time | Temp. | Humidity | Pressure | Rain* | Wind** | Luminosity | Snow |
|---|---|---|---|---|---|---|---|
| 1777831350 | 25.56° C | 48% | 1019.9 hPa | 0 mm | - | 785 W/m² | - |
| 1777831047 | 25.56° C | 48% | 1020 hPa | 0 mm | - | 785 W/m² | - |
| 1777830745 | 25.56° C | 48% | 1020.2 hPa | 0 mm | - | 785 W/m² | - |
| 1777830440 | 25.56° C | 48% | 1020.4 hPa | 0 mm | - | 785 W/m² | - |
| 1777830139 | 25.56° C | 48% | 1020.2 hPa | 0 mm | - | 785 W/m² | - |
| 1777829833 | 25.56° C | 48% | 1020.5 hPa | 0 mm | - | 785 W/m² | - |
| 1777829530 | 25.56° C | 48% | 1020.4 hPa | 0 mm | - | 785 W/m² | - |
| 1777829227 | 25.56° C | 48% | 1020.5 hPa | 0 mm | - | 785 W/m² | - |
| 1777828924 | 25.56° C | 48% | 1020.5 hPa | 0 mm | - | 785 W/m² | - |
| 1777828620 | 25.56° C | 48% | 1020.7 hPa | 0 mm | - | 785 W/m² | - |
| 1777828318 | 25.56° C | 48% | 1020.9 hPa | 0 mm | - | 785 W/m² | - |
| 1777828014 | 25° C | 48% | 1020.9 hPa | 0 mm | - | 809 W/m² | - |
| 1777827711 | 25° C | 49% | 1020.8 hPa | 0 mm | - | 803 W/m² | - |
| 1777827408 | 24.44° C | 52% | 1020.8 hPa | 0 mm | - | 804 W/m² | - |
| 1777827105 | 24.44° C | 46% | 1020.7 hPa | 0 mm | - | 809 W/m² | - |
| 1777826801 | 25° C | 49% | 1020.8 hPa | 0 mm | - | 826 W/m² | - |
| 1777826498 | 25.56° C | 50% | 1020.9 hPa | 0 mm | - | 834 W/m² | - |
| 1777826195 | 25° C | 48% | 1020.9 hPa | 0 mm | - | 835 W/m² | - |
| 1777825893 | 25° C | 48% | 1021.1 hPa | 0 mm | - | 835 W/m² | - |
| 1777825590 | 25° C | 50% | 1020.9 hPa | 0 mm | - | 859 W/m² | - |
| 1777825288 | 25° C | 50% | 1020.9 hPa | 0 mm | - | 859 W/m² | - |
| 1777824984 | 25° C | 47% | 1020.9 hPa | 0 mm | - | 856 W/m² | - |
| 1777824680 | 25.56° C | 49% | 1021 hPa | 0 mm | - | 818 W/m² | - |
| 1777824377 | 25.56° C | 50% | 1021.1 hPa | 0 mm | - | 821 W/m² | - |
| 1777824073 | 25° C | 51% | 1020.8 hPa | 0 mm | - | 811 W/m² | - |
* Rain latest hour (hover to see other rain measurements)
** Current wind speed in m/s (hover to see current wind gust speed)